Simultaneous Nadir Overpasses (SNOs) Predictions

Prediction of SNOs between NOAA-19 and TERRA Satellite Orbit:

Table of predicted SNOs for the next 14.0 days since TLE Epoch: 5/23/2020
Index Date (NOAA-19) Time (NOAA-19) Lat,Lon (NOAA-19) SZA (NOAA-19 ) Date (TERRA) Time (TERRA) Lat,Lon (TERRA) SZA (TERRA ) Distance(km) Time Diff (sec)
1 05/23/2020 16:09:11 79.71, -37.14 60.02 05/23/2020 16:10:15 79.66, -33.12 60.37 80.36 64
2 05/23/2020 16:59:56 -79.42, 133.06 119.97 05/23/2020 16:59:48 -79.43, 132.91 119.99 3.04 8
3 05/25/2020 22:33:20 79.45,-130.42 59.64 05/25/2020 22:33:31 79.44,-130.45 59.63 1.09 11
4 05/25/2020 23:24:10 -79.28, 38.37 120.37 05/25/2020 23:22:59 -79.40, 36.93 120.44 32.45 71
5 05/28/2020 04:06:34 -79.46, -33.76 120.73 05/28/2020 04:07:15 -79.44, -33.86 120.74 2.75 41
6 05/28/2020 04:57:38 79.44, 133.67 59.27 05/28/2020 04:56:41 79.44, 133.79 59.26 2.50 57
7 05/30/2020 09:39:56 79.45, 63.06 58.94 05/30/2020 09:40:57 79.48, 62.97 58.98 3.54 61
8 05/30/2020 10:30:52 -79.44,-129.57 121.07 05/30/2020 10:30:25 -79.45,-129.62 121.08 1.33 27
9 06/01/2020 16:04:14 79.45, -32.91 58.63 06/01/2020 16:04:07 79.48, -32.83 58.66 3.56 7
10 06/03/2020 21:37:29 -79.46, 63.82 121.65 06/03/2020 21:37:51 -79.48, 63.75 121.63 3.08 22




NCC Satellite Simultaneous Nadir Overpasses (SNOs) Prediction Service
